[[{"header":{"parameterUnit":"m.s-1","parameterCategory":1,"la1":30.2991,"la2":30.254,"lo1":-89.0895,"lo2":-89.0444,"dy":0.0017,"dx":0.0017,"nx":28,"ny":28,"refTime":"2023-09-14T09:00:00:Z","depth":0,"parameterNumber":2,"parameterNumberName":"U-component_of_WINDS"},"data":[0,0,0,0,0,0,0,0,0,0,0,0,0,0,0,0,0,0,0,0,0,0,0,0,0,0,0,0,0,0,0,0,0,0,0,0,0,0,0,0,0,0,0,0,0,0,0,0,0,0,0,0,0,0,0,0,0,0,-2.2598,-2.2598,0,-2.2647,-2.2648,-2.2649,-2.2594,-2.2592,-2.259,-2.2588,-2.2638,-2.2641,-2.2644,0,0,0,0,0,0,0,0,0,0,0,0,0,-2.2454,-2.2457,-2.2598,-2.2598,-2.2599,-2.2647,-2.2648,-2.2649,-2.2595,-2.2592,-2.259,-2.2587,-2.2637,-2.2641,-2.2644,0,0,0,0,0,0,0,0,0,0,0,0,0,-2.2511,-2.2458,-2.2597,-2.2578,-2.2577,-2.2647,-2.2648,-2.2649,-2.2595,-2.2592,-2.2589,-2.2586,-2.2635,-2.264,-2.2645,-2.2737,0,0,-2.266,-2.2662,0,0,0,0,0,0,0,0,-2.2508,-2.2517,-2.258,-2.2579,-2.2578,-2.2612,-2.2615,-2.2678,-2.2596,-2.2588,-2.2588,-2.2585,-2.2631,-2.2636,-2.2653,-2.2739,-2.2741,-2.266,-2.2663,-2.2665,-2.2667,0,0,0,0,0,0,0,-2.2504,-2.2514,-2.2617,-2.2581,-2.258,-2.2566,-2.2571,-2.2627,-2.2626,-2.2589,-2.2585,-2.2591,-2.263,-2.2648,-2.2653,-2.2742,-2.266,-2.2664,-2.2667,-2.2669,-2.2907,-2.291,0,0,0,0,0,0,-2.2503,-2.2511,-2.2616,-2.2619,-2.2535,-2.2571,-2.2576,-2.2604,-2.2626,-2.2626,-2.2594,-2.2589,-2.2641,-2.2648,-2.2655,-2.2764,-2.2665,-2.267,-2.2673,-2.2904,-2.2908,-2.2911,0,0,0,0,0,0,-2.25,-2.2513,-2.2614,-2.2564,-2.2576,-2.2577,-2.2608,-2.2606,-2.2624,-2.263,-2.2629,-2.2612,-2.2639,-2.2648,-2.2717,-2.2765,-2.2672,-2.2676,-2.29,-2.2905,-2.2909,-2.2984,0,0,0,0,0,0,-2.2496,-2.2512,-2.2547,-2.2565,-2.2579,-2.2676,-2.2611,-2.261,-2.2633,-2.2626,-2.2647,-2.2647,-2.2637,-2.271,-2.2722,-2.277,-2.268,-2.2895,-2.2902,-2.2908,-2.2978,-2.2991,-2.3003,0,0,0,0,0,-2.2491,-2.2566,-2.2549,-2.2562,-2.2623,-2.2679,-2.2686,-2.2674,-2.2637,-2.2672,-2.2676,-2.2647,-2.2758,-2.2718,-2.273,-2.2781,-2.2892,-2.29,-2.2907,-2.2972,-2.2989,-2.3003,0,0,0,0,0,0,-2.2553,-2.2568,-2.255,-2.2633,-2.2655,-2.267,-2.2714,-2.2692,-2.2724,-2.2717,-2.2699,-2.2704,-2.2778,-2.2786,-2.2741,-2.2871,-2.2819,-2.283,-2.2864,-2.288,-2.2892,-2.2889,-2.2684,0,0,0,0,0,-2.2577,-2.2621,-2.2631,-2.2704,-2.2716,-2.2713,-2.2737,-2.2725,-2.2747,-2.2756,-2.2765,-2.2787,-2.2827,-2.2853,-2.289,-2.2978,-2.2982,-2.3019,-2.3032,-2.3042,-2.3052,-2.3099,-2.3116,-2.2936,-2.2936,-2.2936,0,0,-2.2626,-2.2639,-2.2668,-2.2717,-2.2732,-2.2779,-2.2721,-2.2772,-2.2806,-2.2764,-2.283,-2.2837,-2.286,-2.2939,-2.2974,-2.2948,-2.3102,-2.3052,-2.306,-2.3064,-2.3109,-2.3126,-2.3141,-2.2942,-2.2941,-2.294,0,0,-2.2738,-2.2753,-2.2815,-2.2832,-2.2857,-2.2855,-2.287,-2.2888,-2.2891,-2.2957,-2.2926,-2.2965,-2.3034,-2.3053,-2.3071,-2.319,-2.3165,-2.3203,-2.327,-2.3316,-2.333,-2.3343,-2.3386,-2.3402,-2.3212,-2.3212,-2.3212,0,-2.2796,-2.2865,-2.285,-2.2904,-2.2926,-2.2889,-2.2952,-2.2969,-2.3004,-2.302,-2.299,-2.3077,-2.309,-2.3173,-2.3202,-2.3217,-2.3234,-2.3201,-2.3329,-2.3342,-2.3353,-2.3394,-2.3411,-2.3217,-2.3216,-2.3216,-2.3215,0,-2.2935,-2.2983,-2.303,-2.3066,-2.3093,-2.3151,-2.3144,-2.3173,-2.3159,-2.316,-2.3227,-2.3242,-2.3281,-2.33,-2.3286,-2.3381,-2.3364,-2.3332,-2.3279,-2.3375,-2.3413,-2.3429,-2.3223,-2.3221,-2.322,-2.3219,0,0,-2.3089,-2.3116,-2.3134,-2.315,-2.3174,-2.3211,-2.3266,-2.3306,-2.3331,-2.3356,-2.3403,-2.3462,-2.3433,-2.3454,-2.3441,-2.3482,-2.3576,-2.3445,-2.3445,-2.347,-2.3682,-2.3707,-2.3725,-2.3559,-2.3562,-2.3564,-2.3681,0,-2.3203,-2.3301,-2.3289,-2.3383,-2.3427,-2.3393,-2.3441,-2.3461,-2.3463,-2.3501,-2.3502,-2.3545,-2.3502,-2.3515,-2.3553,-2.3557,-2.3619,-2.3548,-2.3602,-2.3604,-2.3599,-2.3745,-2.3771,-2.388,-2.3695,-2.3698,-2.37,0,-2.335,-2.3381,-2.348,-2.3497,-2.3515,-2.356,-2.3594,-2.3631,-2.3652,-2.3651,-2.3674,-2.3654,-2.371,-2.3655,-2.3732,-2.3684,-2.3705,-2.371,-2.3714,-2.3719,-2.3659,-2.3755,-2.3915,-2.3932,-2.3723,-2.3721,-2.3719,0,-2.3454,-2.352,-2.3588,-2.3602,-2.3625,-2.3657,-2.3667,-2.3686,-2.371,-2.374,-2.3755,-2.3791,-2.3811,-2.3839,-2.383,-2.3791,-2.3908,-2.3853,-2.3909,-2.3909,-2.3936,-2.3935,-2.4102,-2.3948,-2.3948,-2.3948,-2.3947,0,-2.3583,-2.3645,-2.3635,-2.3677,-2.3745,-2.3729,-2.3797,-2.3803,-2.382,-2.3862,-2.3833,-2.3873,-2.3858,-2.3897,-2.3889,-2.3954,-2.3963,-2.3963,-2.3961,-2.3966,-2.3966,-2.3981,-2.3973,-2.3952,-2.3951,-2.395,-2.3949,0,-2.3711,-2.3707,-2.3779,-2.3794,-2.3799,-2.3848,-2.3861,-2.39,-2.3899,-2.3953,-2.3964,-2.3963,-2.4007,-2.4,-2.4049,-2.4044,-2.4125,-2.4112,-2.4118,-2.4115,-2.4172,-2.4167,-2.4355,-2.4379,-2.4209,-2.4211,-2.4212,0,-2.3795,-2.3842,-2.3862,-2.3888,-2.3901,-2.3944,-2.3968,-2.3955,-2.3982,-2.401,-2.4045,-2.4087,-2.412,-2.4192,-2.4195,-2.4232,-2.4221,-2.4284,-2.4226,-2.4231,-2.4223,-2.4221,-2.4225,-2.4296,-2.4298,-2.43,-2.4301,0,-2.3944,-2.3939,-2.3976,-2.4013,-2.4043,-2.4071,-2.4096,-2.4119,-2.4108,-2.4139,-2.4184,-2.421,-2.4259,-2.4301,-2.4336,-2.4346,-2.4322,-2.4319,-2.4334,-2.4341,-2.4342,-2.4343,-2.415,-2.4315,-2.4313,-2.4312,-2.4312,-2.4311,-2.4052,-2.4093,-2.4113,-2.4155,-2.4173,-2.4197,-2.4234,-2.4238,-2.4276,-2.4316,-2.4305,-2.4356,-2.4376,-2.442,-2.4434,-2.4474,-2.445,-2.4472,-2.4477,-2.4483,-2.4491,-2.4335,-2.448,-2.4479,-2.4479,-2.4479,-2.4478,0,-2.42,-2.4212,-2.4251,-2.4287,-2.432,-2.4295,-2.4321,-2.435,-2.4396,-2.4417,-2.4449,-2.4501,-2.4541,-2.4548,-2.4586,-2.4616,-2.4606,-2.4627,-2.4625,-2.4628,-2.4509,-2.4493,-2.4634,-2.4634,-2.4634,-2.4634,-2.4634,-2.4634,-2.4282,-2.4348,-2.4346,-2.4421,-2.4432,-2.4482,-2.4499,-2.4521,-2.4538,-2.4597,-2.4631,-2.4634,-2.4649,-2.4688,-2.4724,-2.4725,-2.474,-2.4766,-2.4762,-2.4651,-2.4636,-2.4621,-2.4606,-2.4769,-2.4769,-2.4878,-2.4879,-2.4879]},{"header":{"parameterUnit":"m.s-1","parameterCategory":1,"la1":30.2991,"la2":30.254,"lo1":-89.0895,"lo2":-89.0444,"dy":0.0017,"dx":0.0017,"nx":28,"ny":28,"refTime":"2023-09-14T09:00:00:Z","depth":0,"parameterNumber":3,"parameterNumberName":"V-component_of_WINDS"},"data":[0,0,0,0,0,0,0,0,0,0,0,0,0,0,0,0,0,0,0,0,0,0,0,0,0,0,0,0,0,0,0,0,0,0,0,0,0,0,0,0,0,0,0,0,0,0,0,0,0,0,0,0,0,0,0,0,0,0,-0.9547,-0.9547,0,-0.9562,-0.9562,-0.9562,-0.9563,-0.9562,-0.9562,-0.9562,-0.9578,-0.9578,-0.9579,0,0,0,0,0,0,0,0,0,0,0,0,0,-0.9518,-0.9518,-0.9547,-0.9547,-0.9547,-0.9562,-0.9562,-0.9562,-0.9563,-0.9562,-0.9562,-0.9562,-0.9577,-0.9578,-0.9579,0,0,0,0,0,0,0,0,0,0,0,0,0,-0.9531,-0.9519,-0.9547,-0.9549,-0.9549,-0.9562,-0.9562,-0.9562,-0.9563,-0.9562,-0.9562,-0.9562,-0.9577,-0.9578,-0.9579,-0.959,0,0,-0.9581,-0.9582,0,0,0,0,0,0,0,0,-0.9531,-0.9532,-0.9549,-0.9549,-0.9549,-0.956,-0.9557,-0.9571,-0.9563,-0.9558,-0.9562,-0.9562,-0.9572,-0.9573,-0.9577,-0.959,-0.9591,-0.9582,-0.9582,-0.9582,-0.9583,0,0,0,0,0,0,0,-0.953,-0.9532,-0.9553,-0.9549,-0.9549,-0.9549,-0.9551,-0.956,-0.9566,-0.9558,-0.9558,-0.956,-0.9572,-0.9576,-0.9577,-0.9591,-0.9582,-0.9582,-0.9583,-0.9583,-0.9614,-0.9614,0,0,0,0,0,0,-0.9528,-0.9531,-0.9552,-0.9553,-0.9539,-0.955,-0.9552,-0.9557,-0.9566,-0.9567,-0.956,-0.956,-0.9574,-0.9576,-0.9578,-0.959,-0.9582,-0.9583,-0.9584,-0.9613,-0.9614,-0.9614,0,0,0,0,0,0,-0.9528,-0.953,-0.9552,-0.9542,-0.9545,-0.9551,-0.9556,-0.9557,-0.9561,-0.9568,-0.9569,-0.9563,-0.9574,-0.9576,-0.9586,-0.9591,-0.9584,-0.9584,-0.9613,-0.9614,-0.9614,-0.9616,0,0,0,0,0,0,-0.9527,-0.953,-0.9534,-0.9542,-0.9545,-0.956,-0.9557,-0.9558,-0.9562,-0.9562,-0.957,-0.9571,-0.9574,-0.9585,-0.9587,-0.9592,-0.9585,-0.9613,-0.9613,-0.9614,-0.9616,-0.9617,-0.9618,0,0,0,0,0,-0.9526,-0.9535,-0.9535,-0.9537,-0.9551,-0.9561,-0.9563,-0.9565,-0.9563,-0.9567,-0.9571,-0.9571,-0.959,-0.9586,-0.9589,-0.9594,-0.9612,-0.9613,-0.9614,-0.9616,-0.9617,-0.9618,0,0,0,0,0,0,-0.9528,-0.9536,-0.9536,-0.9548,-0.9553,-0.9561,-0.9567,-0.9567,-0.9573,-0.9573,-0.9576,-0.9578,-0.9588,-0.9592,-0.9587,-0.9604,-0.9601,-0.9602,-0.9601,-0.9603,-0.9603,-0.9602,-0.9586,0,0,0,0,0,-0.9529,-0.9537,-0.9543,-0.9553,-0.9556,-0.9561,-0.9565,-0.9567,-0.9573,-0.9575,-0.958,-0.9586,-0.9593,-0.9598,-0.9605,-0.9616,-0.9618,-0.9621,-0.9622,-0.9622,-0.9623,-0.9629,-0.963,-0.9616,-0.9616,-0.9616,0,0,-0.9533,-0.9539,-0.9543,-0.9554,-0.9558,-0.9566,-0.9563,-0.9571,-0.9576,-0.9577,-0.9587,-0.959,-0.9597,-0.9607,-0.9612,-0.9611,-0.9628,-0.9623,-0.9624,-0.9624,-0.963,-0.9631,-0.9632,-0.9617,-0.9617,-0.9617,0,0,-0.9544,-0.9549,-0.9557,-0.9562,-0.9569,-0.9571,-0.9573,-0.9581,-0.9583,-0.9593,-0.9593,-0.9599,-0.9612,-0.9616,-0.962,-0.9631,-0.9631,-0.9633,-0.9638,-0.9643,-0.9644,-0.9645,-0.9649,-0.965,-0.9634,-0.9634,-0.9634,0,-0.9548,-0.9559,-0.9561,-0.9569,-0.9574,-0.9574,-0.9582,-0.9586,-0.9595,-0.9598,-0.9596,-0.9611,-0.9616,-0.9627,-0.963,-0.9633,-0.9635,-0.9633,-0.9644,-0.9645,-0.9646,-0.9649,-0.9651,-0.9634,-0.9634,-0.9634,-0.9634,0,-0.9563,-0.9571,-0.9577,-0.9585,-0.959,-0.9598,-0.9601,-0.9606,-0.9606,-0.9609,-0.9619,-0.9624,-0.9632,-0.9635,-0.9636,-0.9646,-0.9645,-0.9643,-0.964,-0.9647,-0.9651,-0.9652,-0.9635,-0.9635,-0.9635,-0.9635,0,0,-0.9577,-0.9585,-0.9587,-0.9591,-0.9598,-0.9604,-0.9611,-0.9618,-0.9622,-0.9628,-0.9634,-0.9644,-0.9643,-0.9647,-0.9649,-0.9653,-0.9661,-0.9651,-0.9651,-0.9653,-0.9672,-0.9673,-0.9674,-0.9661,-0.9661,-0.9661,-0.9671,0,-0.9588,-0.9602,-0.9603,-0.9615,-0.9622,-0.9621,-0.9628,-0.9633,-0.9635,-0.9641,-0.9644,-0.9651,-0.9649,-0.9651,-0.9656,-0.9659,-0.9665,-0.9658,-0.9666,-0.9667,-0.9665,-0.9676,-0.9677,-0.9686,-0.9672,-0.9673,-0.9673,0,-0.9603,-0.9609,-0.9622,-0.9627,-0.963,-0.9636,-0.9642,-0.9647,-0.9653,-0.9654,-0.9658,-0.9659,-0.9666,-0.9663,-0.9672,-0.9668,-0.9671,-0.9673,-0.9674,-0.9675,-0.967,-0.9677,-0.9689,-0.9691,-0.9675,-0.9675,-0.9675,0,-0.9612,-0.9622,-0.9631,-0.9634,-0.964,-0.9644,-0.9647,-0.9652,-0.9656,-0.9661,-0.9664,-0.967,-0.9674,-0.9678,-0.968,-0.9677,-0.969,-0.9686,-0.9691,-0.9691,-0.9694,-0.9694,-0.9707,-0.9696,-0.9696,-0.9696,-0.9696,0,-0.9624,-0.9632,-0.9635,-0.964,-0.9648,-0.965,-0.9658,-0.966,-0.9664,-0.967,-0.967,-0.9675,-0.9678,-0.9683,-0.9685,-0.9692,-0.9694,-0.9695,-0.9696,-0.9695,-0.9695,-0.9698,-0.9697,-0.9696,-0.9696,-0.9696,-0.9696,0,-0.9635,-0.9637,-0.9647,-0.9651,-0.9653,-0.9659,-0.9663,-0.9668,-0.967,-0.9677,-0.9678,-0.9682,-0.9688,-0.969,-0.9698,-0.9699,-0.9708,-0.9708,-0.9706,-0.9706,-0.9711,-0.971,-0.9726,-0.9728,-0.9716,-0.9716,-0.9716,0,-0.9643,-0.9649,-0.9654,-0.9658,-0.966,-0.9666,-0.967,-0.9671,-0.9675,-0.9681,-0.9685,-0.9691,-0.9696,-0.9706,-0.9709,-0.9715,-0.9715,-0.972,-0.9716,-0.9715,-0.9715,-0.9715,-0.9715,-0.9721,-0.9721,-0.9721,-0.9721,0,-0.9657,-0.9657,-0.9663,-0.9668,-0.9673,-0.9677,-0.9682,-0.9684,-0.9686,-0.9691,-0.9697,-0.9701,-0.9708,-0.9714,-0.972,-0.9723,-0.9722,-0.9722,-0.9724,-0.9724,-0.9722,-0.9723,-0.9708,-0.9722,-0.9722,-0.9722,-0.9722,-0.9722,-0.9666,-0.9671,-0.9675,-0.9681,-0.9684,-0.9688,-0.9693,-0.9695,-0.97,-0.9706,-0.9707,-0.9713,-0.9717,-0.9725,-0.9728,-0.9733,-0.9731,-0.9733,-0.9734,-0.9734,-0.9734,-0.9721,-0.9734,-0.9734,-0.9734,-0.9734,-0.9734,0,-0.968,-0.9682,-0.9688,-0.9693,-0.9698,-0.9696,-0.9701,-0.9705,-0.971,-0.9714,-0.9719,-0.9725,-0.9731,-0.9734,-0.9739,-0.9743,-0.9743,-0.9744,-0.9744,-0.9744,-0.9736,-0.9734,-0.9744,-0.9744,-0.9744,-0.9744,-0.9744,-0.9744,-0.9688,-0.9695,-0.9696,-0.9705,-0.9707,-0.9714,-0.9716,-0.9719,-0.9722,-0.973,-0.9734,-0.9736,-0.9739,-0.9745,-0.975,-0.975,-0.9752,-0.9754,-0.9754,-0.9746,-0.9745,-0.9744,-0.9742,-0.9754,-0.9754,-0.9763,-0.9763,-0.9763]}]]